www.pogodaiklimat.ru

Погода и климат >> Архив погоды >> Норвегия >> Тана-Бру


ПОГОДА в Тана-Бру

  • Прогноз погоды в Тана-Бру
  • Монитор погоды в Тана-Бру

АРХИВ ПОГОДЫ в Тана-Бру

Время (UTC), дата Ветер
(напр.,м/с)
 
Видим.   Явления Облачность Т
(С)
Тd
(С)
f
(%)
Тe
(С)
Тes
(С)
Комфортность P
(гПа)
Po
(гПа)
Тmin
(С)
Tmax
(С)
R
(мм)
R24
(мм)
S
(см)
07 10.09 ЮВ 3
{5}
н/о н/о +12.2 +7.1 71 +11 +11 1020.6 1016.7
08 10.09 ЮВ 4
{6}
н/о н/о +12.7 +7.0 68 +11 +11 1020.0 1016.1
09 10.09 Ю 6
{8}
н/о н/о +14.0 +7.1 63 +12 +12 1019.4 1015.5
10 10.09 Ю 5
{8}
н/о н/о +15.1 +6.9 58 +14 +14 1018.8 1014.9
11 10.09 Ю 4
{9}
н/о н/о +15.0 +7.6 61 +14 +14 1018.3 1014.4
12 10.09 Ю 6
{9}
н/о н/о +17.7 +7.7 52 +17 +17 1017.6 1013.8
13 10.09 Ю 6
{11}
н/о н/о +18.7 +6.9 46 +19 +19 1016.7 1012.9
14 10.09 ЮЗ 4
{10}
н/о н/о +18.9 +6.7 45 +19 +19 1016.5 1012.7
15 10.09 Ю 3
{9}
н/о н/о +17.7 +8.6 55 +18 +18 1016.5 1012.7
16 10.09 Ю 3
{9}
н/о н/о +15.5 +9.6 68 +15 +15 1016.6 1012.8
17 10.09 Ю 3
{4}
н/о н/о +13.1 +9.2 77 +12 +12 1016.2 1012.3
18 10.09 Ю 2
{11}
н/о н/о +13.2 +9.5 78 +13 +13 1015.7 1011.8 +9.5 +19.0
19 10.09 Ю 4
{5}
н/о н/о +14.4 +10.0 75 +13 +13 1015.1 1011.3
20 10.09 ЮВ 4
{6}
н/о н/о +14.0 +10.2 78 +13 +13 1015.0 1011.2
21 10.09 Ю 3
{8}
н/о н/о +14.0 +10.2 78 +13 +13 1015.1 1011.2
22 10.09 ЮВ 5
{8}
н/о н/о +13.9 +10.3 79 +12 +12 1014.5 1010.7
23 10.09 ЮВ 3
{7}
н/о н/о +13.7 +10.1 79 +13 +13 1014.5 1010.7
00 11.09 ЮВ 2
{8}
н/о н/о +13.4 +10.0 80 +13 +13 1014.2 1010.3
01 11.09 Ю 4
{9}
н/о н/о +13.9 +9.8 76 +12 +12 1013.7 1009.9
02 11.09 Ю 7
{11}
н/о н/о +13.7 +9.9 78 +11 +11 1012.6 1008.8
03 11.09 Ю 4
{11}
н/о н/о +14.0 +10.2 78 +13 +13 1012.3 1008.5
04 11.09 Ю 4
{7}
н/о н/о +14.2 +10.6 79 +13 +13 1012.0 1008.2
05 11.09 СВ 1
{7}
н/о н/о +13.9 +10.9 82 +14 +14 1012.1 1008.3
06 11.09 Ю 4
{11}
н/о н/о +14.7 +11.1 79 +13 +13 1011.8 1008.0 +13.1 +14.7
07 11.09 Ю 4
{9}
н/о н/о +15.0 +11.2 78 +14 +14 1011.5 1007.7
08 11.09 ЮВ 4
{8}
н/о н/о +15.3 +11.3 77 +14 +14 1011.3 1007.5
09 11.09 ЮВ 3
{7}
н/о н/о +15.6 +11.6 77 +15 +15 1011.0 1007.2
10 11.09 Ю 4
{8}
н/о н/о +16.8 +11.3 70 +16 +16 1010.7 1006.9
11 11.09 ЮВ 4
{9}
н/о н/о +17.5 +12.4 72 +17 +17 1010.3 1006.5
12 11.09 Ю 8
{14}
н/о н/о +18.3 +12.3 68 +18 +18 1009.7 1005.9
13 11.09 Ю 4
{11}
н/о н/о +17.4 +12.1 71 +17 +17 1010.0 1006.2
14 11.09 Ю 4
{7}
н/о н/о +16.9 +11.6 71 +16 +16 1009.7 1005.9
15 11.09 ЮВ 3
{7}
н/о н/о +16.2 +12.0 76 +16 +16 1009.1 1005.3
16 11.09 Ю 5
{8}
н/о н/о +16.1 +11.1 72 +15 +15 1008.8 1005.0
17 11.09 ЮВ 3
{8}
н/о н/о +14.9 +10.7 76 +14 +14 1008.2 1004.4
18 11.09 ЮВ 2
{11}
н/о н/о +13.6 +10.6 82 +13 +13 1007.8 1004.0 +13.6 +18.7
19 11.09 Ю 1
{3}
н/о н/о +11.0 +9.1 88 +11 +11 1007.2 1003.3
20 11.09 Ю 1
{2}
н/о н/о +10.2 +9.3 94 +10 +10 1006.4 1002.5
21 11.09 Ю 3
{4}
н/о н/о +11.7 +10.5 92 +10 +10 1005.5 1001.7
22 11.09 Ю 3
{4}
н/о н/о +12.3 +10.5 89 +11 +11 1004.8 1001.0
23 11.09 Ю 3
{5}
н/о н/о +11.9 +10.3 90 +10 +10 1004.3 1000.5
00 12.09 Ю 2
{5}
н/о н/о +12.0 +10.6 91 +11 +11 1003.4 999.6
01 12.09 Ю 1
{3}
н/о н/о +11.3 +10.2 93 +11 +11 1003.1 999.3
02 12.09 Ю 4
{7}
н/о н/о +13.1 +11.7 91 +11 +11 1002.4 998.6
03 12.09 ЮВ 4
{8}
н/о н/о +13.3 +11.5 89 +12 +12 1002.0 998.2
04 12.09 ЮВ 4
{9}
н/о н/о +13.3 +11.5 89 +12 +12 1001.6 997.8
05 12.09 Ю 3
{7}
н/о н/о +13.2 +10.9 86 +12 +12 1001.3 997.5
06 12.09 Ю 2
{9}
н/о н/о +13.0 +10.7 86 +12 +12 1000.9 997.1 +9.8 +13.7
07 12.09 Ю 4
{5}
н/о н/о +14.5 +11.3 81 +13 +13 1000.7 996.9
08 12.09 ЮВ 4
{8}
н/о н/о +15.4 +11.8 79 +14 +14 1000.2 996.4
09 12.09 Ю 4
{9}
н/о н/о +16.1 +11.3 73 +15 +15 999.7 995.9
10 12.09 ЮВ 5
{9}
н/о н/о +15.9 +10.7 71 +15 +15 999.4 995.6
11 12.09 Ю 5
{10}
н/о н/о +16.7 +10.6 67 +16 +16 999.0 995.2
12 12.09 Ю 5
{10}
н/о н/о +16.3 +10.2 67 +15 +15 998.6 994.8
13 12.09 Ю 4
{8}
н/о н/о +17.1 +10.5 65 +17 +17 997.8 994.1
14 12.09 ЮВ 5
{8}
н/о н/о +16.7 +10.3 66 +16 +16 997.3 993.6
15 12.09 ЮВ 4
{9}
н/о н/о +15.9 +10.5 70 +15 +15 997.0 993.2
16 12.09 ЮВ 2
{5}
н/о н/о +15.3 +10.9 75 +15 +15 996.5 992.7
17 12.09 ЮВ 3
{6}
н/о н/о +14.8 +11.0 78 +14 +14 996.0 992.2
18 12.09 ЮВ 3
{9}
н/о н/о +13.4 +11.5 88 +12 +12 995.6 991.8 +13.0 +18.2 0.1
19 12.09 ЮВ 2
{4}
н/о н/о +12.9 +11.5 91 +12 +12 995.1 991.3
20 12.09 Ю 1
{2}
н/о н/о +12.3 +11.2 93 +12 +12 994.5 990.7 1
21 12.09 ЮВ 2
{3}
н/о н/о +12.4 +11.5 94 +11 +11 993.7 989.9 0.3
22 12.09 Ю 2
{5}
н/о н/о +12.5 +11.6 94 +11 +11 993.3 989.5
23 12.09 Ю 2
{5}
н/о н/о +12.3 +11.2 93 +11 +11 993.1 989.3
00 13.09 ЮВ 1
{5}
н/о н/о +12.0 +11.1 94 +12 +12 992.9 989.1 0.2
01 13.09 СЗ 6
{10}
н/о н/о +10.3 +8.9 91 +7 +7 993.2 989.5 0.3
02 13.09 СЗ 4
{9}
н/о н/о +9.2 +7.8 91 +6 +6 993.8 990.0 0.5
03 13.09 СЗ 5
{9}
н/о н/о +9.1 +7.7 91 +6 +6 993.9 990.1 0.5
04 13.09 СЗ 6
{11}
н/о н/о +8.7 +6.8 88 +5 +5 994.1 990.3 0.5
05 13.09 СЗ 6
{12}
н/о н/о +8.8 +6.3 84 +5 +5 994.5 990.7
06 13.09 СЗ 6
{12}
н/о н/о +9.1 +6.4 83 +5 +5 994.8 991.0 +8.7 +13.4 3
07 13.09 СЗ 5
{9}
н/о н/о +9.6 +6.7 82 +6 +6 995.1 991.3
08 13.09 СЗ 6
{10}
н/о н/о +9.8 +6.7 81 +6 +6 995.6 991.8
09 13.09 СЗ 6
{10}
н/о н/о +10.8 +6.4 74 +8 +8 996.0 992.2
10 13.09 СЗ 6 н/о н/о +10.8 +5.4 69 +8 +8 996.6 992.8
11 13.09 н/о н/о
12 13.09 СЗ 6
{11}
н/о н/о +10.6 +4.3 65 +8 +8 997.9 994.1
13 13.09 З 6 н/о н/о +9.2 +3.8 69 +6 +6 998.5 994.7
14 13.09 СЗ 5 н/о н/о +10.0 +3.3 63 +7 +7 999.0 995.2
15 13.09 СЗ 4 н/о н/о +8.5 +3.8 72 +6 +6 999.5 995.6
16 13.09 СЗ 5 н/о н/о +8.7 +3.8 71 +5 +5 1000.0 996.1
17 13.09 З 4 н/о н/о +8.3 +3.6 72 +5 +5 1000.2 996.3
18 13.09 З 4
{11}
н/о н/о +8.1 +3.8 74 +5 +5 1000.5 996.6 +11.3
19 13.09 З 3 н/о н/о +7.2 +4.3 82 +4 +4 1000.9 997.0
20 13.09 СЗ 4 н/о н/о +7.3 +3.9 79 +4 +4 1001.3 997.4
21 13.09 СЗ 5 н/о н/о +7.2 +3.1 75 +3 +3 1001.8 997.9
22 13.09 З 4 н/о н/о +7.0 +3.4 78 +4 +4 1002.2 998.3
23 13.09 З 3 н/о н/о +6.0 +2.5 78 +3 +3 1002.5 998.6
00 14.09 З 4
{9}
н/о н/о +5.9 +2.6 79 +2 +2 1002.9 999.0
01 14.09 З 5
{7}
н/о н/о +6.3 +2.9 79 +2 +2 1003.4 999.5
02 14.09 З 4
{8}
н/о н/о +6.0 +2.1 76 +2 +2 1003.7 999.8
03 14.09 З 3 н/о н/о +5.1 +1.8 79 +2 +2 1004.0 1000.1
04 14.09 СВ 1
{5}
н/о н/о +4.7 +2.2 84 +3 +3 1004.4 1000.5
05 14.09 З 3
{5}
н/о н/о +5.9 +2.2 77 +3 +3 1004.6 1000.7
06 14.09 З 3
{8}
н/о н/о +7.0 +2.9 75 +4 +4 1005.1 1001.2 +4.5 +8.1
07 14.09 З 4 н/о н/о +7.7 +2.4 69 +5 +5 1005.5 1001.6
09 14.09 З 5
{9}
н/о н/о +8.9 +0.4 55 +6 +6 1006.2 1002.3
10 14.09 СЗ 4
{9}
н/о н/о +9.1 +1.1 57 +7 +7 1006.7 1002.8
11 14.09 З 4
{8}
н/о н/о +10.6 +1.7 54 +8 +8 1007.1 1003.2
12 14.09 СЗ 4 н/о н/о +9.5 +0.2 52 +7 +7 1007.4 1003.5
13 14.09 СЗ 3
{6}
н/о н/о +11.3 +2.1 53 +10 +10 1007.8 1003.9
14 14.09 З 2
{6}
н/о н/о +10.4 +0.5 50 +9 +9 1007.8 1003.9
15 14.09 З 1
{4}
н/о н/о +9.7 +1.6 57 +10 +10 1007.8 1003.9
16 14.09 ЮЗ 2
{2}
н/о н/о +4.8 +1.3 78 +2 +2 1007.8 1003.9
17 14.09 штиль 0
{2}
н/о н/о +2.1 -0.1 85 +1 +1 1007.8 1003.8
18 14.09 штиль 0
{6}
н/о н/о +0.7 -0.6 91 -1 -1 1007.8 1003.8
19 14.09 штиль 0
{1}
н/о н/о -0.2 -1.2 93 -2 -2 1007.6 1003.6
20 14.09 штиль 0
{1}
н/о н/о -0.7 -1.4 95 -2 -2 1007.4 1003.4
21 14.09 СВ 1
{1}
н/о н/о -1.8 -2.5 95 -4 -4 1007.2 1003.2
22 14.09 В 1
{1}
н/о н/о -0.9 -1.4 96 -3 -3 1006.9 1002.9
23 14.09 В 1
{1}
н/о н/о -1.7 -2.2 96 -4 -4 1006.7 1002.7
00 15.09 штиль 0
{2}
н/о н/о -2.5 -3.1 96 -4 -4 1006.4 1002.4
01 15.09 В 1
{2}
н/о н/о -2.9 -3.4 96 -5 -5 1006.3 1002.2
02 15.09 ЮВ 1
{1}
н/о н/о -3.4 -4.0 96 -6 -6 1006.0 1001.9
03 15.09 штиль 0
{2}
н/о н/о -3.7 -4.3 96 -5 -5 1005.4 1001.3
04 15.09 В 1
{1}
н/о н/о -3.4 -4.0 96 -6 -6 1004.8 1000.7
05 15.09 штиль 0
{1}
н/о н/о -1.9 -2.3 97 -3 -3 1004.2 1000.2
06 15.09 ЮВ 1
{2}
н/о н/о +0.5 +0.1 97 -2 -2 1003.7 999.7 -3.8 +0.7
07 15.09 В 1
{1}
н/о н/о +3.7 +3.0 95 +2 +2 1003.2 999.3
08 15.09 В 1
{2}
н/о н/о +5.7 +3.4 85 +5 +5 1002.8 998.9
09 15.09 ЮВ 2
{3}
н/о н/о +8.8 +3.0 67 +7 +7 1002.3 998.4
10 15.09 В 3
{5}
н/о н/о +9.8 +1.0 54 +8 +8 1001.9 998.0
11 15.09 В 4
{7}
н/о н/о +9.8 -0.1 50 +8 +8 1001.6 997.7
12 15.09 ЮВ 3
{7}
н/о н/о +10.1 -0.4 48 +8 +8 1001.2 997.4
13 15.09 ЮВ 3
{6}
н/о н/о +9.9 +0.8 53 +8 +8 1000.7 996.9
14 15.09 ЮВ 3
{5}
н/о н/о +9.3 +1.7 59 +7 +7 1000.5 996.6
15 15.09 В 4
{6}
н/о н/о +8.7 +0.4 56 +6 +6 1000.4 996.5
16 15.09 СВ 3
{5}
н/о н/о +8.0 +1.2 62 +6 +6 1000.0 996.1
17 15.09
{5}
н/о н/о +6.0 +1.2 71 999.8 995.9
18 15.09 СЗ 2
{6}
н/о н/о +5.3 +1.6 77 +3 +3 999.4 995.5 +0.5 +10.3
19 15.09 СЗ 2
{4}
н/о н/о +5.3 +2.0 79 +3 +3 998.9 995.0
20 15.09 СЗ 3
{4}
н/о н/о +5.7 +2.9 82 +2 +2 998.5 994.6
21 15.09 С 4
{8}
н/о н/о +5.8 +2.6 80 +2 +2 998.2 994.3
22 15.09 СЗ 5
{9}
н/о н/о +5.8 +3.8 87 +1 +1 997.9 994.0 0.1
23 15.09 СЗ 4
{7}
н/о н/о +5.5 +3.8 89 +1 +1 997.8 993.9 0.2
00 16.09 СЗ 3
{9}
н/о н/о +5.7 +4.5 92 +2 +2 997.6 993.7 0.4
01 16.09 СЗ 3
{5}
н/о н/о +6.1 +5.2 94 +3 +3 997.3 993.4 0.6
02 16.09 С 3
{4}
н/о н/о +6.5 +5.8 95 +3 +3 997.4 993.5 0.3
03 16.09 С 2
{4}
н/о н/о +6.6 +5.9 95 +4 +4 997.8 993.9 0.5
04 16.09
{4}
н/о н/о +6.2 +5.0 92 998.0 994.1 1
05 16.09 С 2
{4}
н/о н/о +6.1 +4.6 90 +4 +4 998.2 994.3
06 16.09 С 3
{5}
н/о н/о +6.3 +4.3 87 +3 +3 998.4 994.5 +5.1 +6.7 3
07 16.09 СВ 3
{5}
н/о н/о +7.2 +4.2 81 +4 +4 998.8 994.9
08 16.09 С 2
{6}
н/о н/о +7.2 +4.7 84 +5 +5 999.1 995.2
09 16.09 СВ 4
{8}
н/о н/о +7.9 +3.4 73 +5 +5 999.5 995.6
10 16.09 С 4
{9}
н/о н/о +8.2 +3.1 70 +5 +5 999.8 995.9
11 16.09 СВ 4
{9}
н/о н/о +8.4 +2.2 65 +6 +6 1000.2 996.3
12 16.09 СВ 4
{9}
н/о н/о +7.9 +2.6 69 +5 +5 1000.6 996.7
13 16.09 С 3
{8}
н/о н/о +7.8 +2.9 71 +5 +5 1000.8 996.9
14 16.09 СВ 3
{7}
н/о н/о +7.4 +2.1 69 +5 +5 1001.0 997.1
15 16.09 С 2
{8}
н/о н/о +7.1 +3.0 75 +5 +5 1001.3 997.4
16 16.09 С 3
{6}
н/о н/о +6.6 +3.2 79 +4 +4 1001.4 997.5
17 16.09 С 2
{6}
н/о н/о +6.3 +3.3 81 +4 +4 1001.6 997.7
18 16.09 С 3
{8}
н/о н/о +6.3 +3.5 82 +3 +3 1001.6 997.7 +6.2 +8.9
19 16.09 СЗ 2
{5}
н/о н/о +6.1 +3.4 83 +4 +4 1001.7 997.8
20 16.09 СЗ 2
{5}
н/о н/о +6.2 +3.0 80 +4 +4 1002.0 998.1
21 16.09 СВ 2
{5}
н/о н/о +6.2 +2.8 79 +4 +4 1002.2 998.3
22 16.09 С 2
{5}
н/о н/о +5.8 +2.6 80 +3 +3 1002.8 998.9
23 16.09 СВ 2
{5}
н/о н/о +5.5 +2.2 79 +3 +3 1003.1 999.2
00 17.09 В 3
{6}
н/о н/о +4.7 +1.2 78 +1 +1 1002.8 998.9
01 17.09 СЗ 2
{6}
н/о н/о +3.0 +0.2 82 0 0 1003.6 999.6
02 17.09 СЗ 2
{4}
н/о н/о +2.6 +0.3 85 -1 -1 1004.0 1000.0
03 17.09 С 2
{4}
н/о н/о +2.0 +0.1 87 -1 -1 1004.0 1000.0
04 17.09 СЗ 1
{3}
н/о н/о +1.9 +0.3 89 0 0 1004.2 1000.2
05 17.09 СЗ 1
{2}
н/о н/о +2.9 +0.5 84 +1 +1 1004.3 1000.3

 

Местоположение метеостанции Тана-Бру (Норвегия): широта 70.21 долгота 28.16 высота над уровнем моря 32 м.

В архиве по умолчанию представлена погода в Тана-Бру за последнюю неделю. Архивные данные за месяц целиком и за предыдущие месяцы, начиная с января 2011 года, Вы можете получить, выбрав интересующий диапазон дат из раскрывающегося списка и нажав кнопку "Ввод!".


*Определитесь, кто Вы:
робот инопланетянин человек

Внимание! Время в таблицах - всемирное. Для получения местного времени необходимо прибавить поправку, которая равна 1 ч.

Смотрите также архив погоды в соседних городах и на ближайших метеорологических станциях:

Погода в Утсйоки Нуоргам (Финляндия) (17 км)
Погода в Вадсо аэропорту (Норвегия) (65 км)
Погода в Утсйоки Кево (Финляндия) (66 км)
Погода в Утсёки Кево Кеволярви (Финляндия) (66 км)
Погода в Ботсфьорде (Норвегия) (72 км)
Погода в Инари Кираккаярви (Финляндия) (75 км)
Погода в Берлевог аэропорту (Норвегия) (80 км)
Погода в Киркенес аэропорту (Норвегия) (85 км)
Погода на Маяке Makkaur (Норвегия) (90 км)
Погода в Мехамн аэропорту (Норвегия) (92 км)

Пояснения к столбцам:

Ветер - указаны скорость ветра в м/с - средняя за 10 мин, порывы в срок и между сроками (в фигурных скобках) и направление, откуда дует ветер: С - северный, СВ - северо-восточный, В - восточный, ЮВ - юго-восточный, Ю - южный, ЮЗ - юго-западный, З - западный, СЗ - северо-западный.
Видимость - горизонтальная дальность видимости в метрах или километрах. При видимости от 1 до 10 км при отсутствии осадков обычно наблюдается дымка, при ухудшении видимости до 1 км и менее - туман. В сухую погоду видимость может ухудшаться дымом, пылью или мглою.
Явления - указаны атмосферные явления, наблюдавшиеся в срок или в последний час перед сроком; фигурными скобками обозначены явления, наблюдавшиеся между сроками (за 1-3 часа до срока); квадратными скобками обозначены град или гололедные отложения с указанием их диаметра в мм.
Облачность - указаны через наклонную черту общая и нижняя облачность в баллах и высота нижней границы облаков в метрах; квадратными скобками обозначены формы облаков: Ci - перистые, Cs - перисто-слоистые, Cc - перисто-кучевые, Ac - высококучевые, As - высокослоистые, Sc - слоисто-кучевые, Ns - слоисто-дождевые, Cu - кучевые, Cb - кучево-дождевые. Подробнее классификацию облаков см. в Атласе облаков (PDF).
T - Температура воздуха - температура, измеренная на высоте 2 м над землей.
Td - Температура точки росы - температура, при понижении до которой содержащийся в воздухе водяной пар достигнет насыщения.
f - Относительная влажность воздуха - влажноcть воздуха, измеренная на высоте 2 м над землей.
Te - Эффективная температура - температура, которую ощущает одетый по сезону человек в тени. Характеристика душности погоды. При расчете учитывается влияние влажности воздуха и скорости ветра на теплоощущения человека.
Tes - Эффективная температура на солнце - температура, которую ощущает человек, с поправкой на солнечный нагрев. Характеристика знойности погоды. Зависит от высоты солнца над горизонтом, облачности и скорости ветра. Ночью, в пасмурную погоду, а также при ветре 12 м/с и более поправка равна нулю.
P - Атмосферное давление - приведенное к уровню моря атмосферное давление.
Po - Атмосферное давление - измеренное на уровне метеостанции атмосферное давление.
Tmin - Минимальная температура - минимум температуры воздуха на высоте 2 м над землей.
Tmax - Максимальная температура - максимум температуры воздуха на высоте 2 м над землей.
R - Количество осадков - Количество выпавших осадков за период времени, мм. При наведении курсора мыши на число - период времени, за который выпало указанное количество осадков.
R24 - Количество осадков - Количество выпавших осадков за 24 часа, мм.
S - Снежный покров - Высота снежного покрова, см. При наведении курсора мыши на число - состояние снежного покрова и степень покрытия местности в баллах.